Location: Bühlhof
(48.7849°N, 8.6361°E)
Time: 14:04:59
(UTC+00:00)

GRACE-FO 2 - Pass Details

Date: 19 January 2026
Orbit: 447 x 461 km, 89.0° (Epoch: 16 February)

Event Time Altitude Azimuth Distance (km) Brightness Sun altitude
Rises 17:34:56 0° 4° (N) 2,506 8.0 -14.9°
Reaches altitude 10° 17:37:02 10° 9° (N) 1,626 7.0 -15.2°
Maximum altitude 17:40:30 54° 88° (E) 575 4.5 -15.7°
Drops below altitude 10° 17:43:56 10° 166° (SSE) 1,612 7.2 -16.3°
Sets 17:46:01 0° 171° (S) 2,481 8.2 -16.6°
